Find Starlink 37811

NORAD ID: 100296 Int'l Des: 2026-183 Owner: SPXS Country: US Constellation: starlink operational

Current View

Loading 3D Globe...

About Starlink 37811

Starlink 37811 (NORAD 100296) is a starlink constellation satellite launched Aug 11, 2026 by SPXS of US. with a mass of 575.00 kg.

Upcoming Passes

Passes for default location (London). Set your location on the main map for personalized predictions.

Altitude History

Loading altitude history...

Two-Line Element Set

1 A0296U 26183AA 26251.63477748 -.00486777 00000-0 -43171-2 0 9998
2 A0296 53.1598 315.6055 0000478 53.1553 306.9509 15.69355442 4444
Epoch: Sep 8, 2026 • Age: 80 hours

Current Status

Altitude 373.7 km
Apogee / Perigee N/A
Velocity 7.69 km/s
Sub-Earth Point 41.53°N, 97.09°E
Launch Date Aug 11, 2026
Age 31 days
Type internet

Technical Details

Classification Payload
Mass 575.00 kg
Dry Mass 530.00 kg
Total Mass 575.00 kg
Length 0.30 m
Diameter 4.10 m
Span 29.00 m
Shape Box + pan
Manufacturer SPXS
Bus Type Starlink V2MO
Phase Status In Orbit
Owner/State SPXS/US

Most Searched